Terminal Aerodrome Forecast
Issued by NWS Tiyan, Guam

Home | Current Version | Previous Version | Text Only | Print | Product List | Glossary On
Versions: 1 2 3 4 5 6 7 8 9 10 11 12 13 14
000
FTPQ31 PGUM 282327
TAFGUM
TAF
PGUM 282327Z 2900/3006 VRB05KT P6SM VCSH SCT018 SCT040 SCT120=

USA.gov is the U.S. government's official web portal to all federal, state and local government web resources and services.